Location: La Comballaz
(46.3780°N, 7.0817°E)
Time: 12:12:43
(UTC+00:00)

STARLINK-1191 - Pass Details

Date: 09 April 2020
Orbit: 375 x 384 km, 53.0° (Epoch: 26 May)

Event Time Altitude Azimuth Distance (km) Brightness Sun altitude
Rises 19:55:34 0° 298° (WNW) 2,271 8.5 -17.3°
Reaches altitude 10° 19:57:40 10° 293° (WNW) 1,414 7.0 -17.6°
Maximum altitude 20:00:45 52° 216° (SW) 488 3.3 -18.1°
Enters shadow 20:01:05 49° 190° (S) 508 3.2 -18.1°
